TCA7111 SVMI-SKPE

Flight info

Callsign TCA7111
Flight time 1h 44m
Altitude 34000
Route BUTSA2 PBL UW40 BRM UW8 LFA UW34 CUC UW26 RNG/N0420F240 W3 MATRO MATRO1G
Aircraft B738/M-SDE2E3FGHIRWXY/LB1

Departure

Time 2026-05-07 00:21
Airport Maiquetía Simón Bolívar International Airport (SVMI)

Arrival

Time 2026-05-07 02:05
Airport Matecaña International Airport (SKPE)
Time Latitude Longitude Altitude Speed Heading
2026-05-07 00:18 10.59958 -67.01232 240 ft 0 kts 341°
2026-05-07 00:19 10.60003 -67.01237 240 ft 14 kts 12°
2026-05-07 00:19 10.60105 -67.01236 239 ft 15 kts 345°
2026-05-07 00:19 10.60141 -67.01244 239 ft 1 kts 351°
2026-05-07 00:19 10.60211 -67.01209 237 ft 20 kts 73°
2026-05-07 00:20 10.60216 -67.01188 235 ft 0 kts 82°
2026-05-07 00:20 10.60223 -67.00979 230 ft 73 kts 88°
2026-05-07 00:20 10.60245 -67.00166 218 ft 153 kts 90°
2026-05-07 00:20 10.60291 -66.98952 688 ft 187 kts 88°
2026-05-07 00:21 10.60472 -66.97535 1264 ft 218 kts 73°
2026-05-07 00:21 10.60881 -66.95987 1806 ft 236 kts 80°
2026-05-07 00:21 10.61178 -66.94302 2300 ft 245 kts 81°
2026-05-07 00:21 10.61486 -66.92597 2759 ft 247 kts 73°
2026-05-07 00:22 10.62377 -66.91127 3257 ft 248 kts 42°
2026-05-07 00:22 10.63952 -66.90393 3796 ft 256 kts 12°
2026-05-07 00:22 10.65753 -66.90235 4321 ft 264 kts
2026-05-07 00:22 10.67591 -66.90197 4834 ft 269 kts
2026-05-07 00:23 10.69478 -66.90155 5324 ft 273 kts
2026-05-07 00:23 10.71386 -66.90098 5826 ft 275 kts
2026-05-07 00:23 10.73303 -66.90032 6322 ft 277 kts
2026-05-07 00:23 10.75236 -66.89961 6824 ft 278 kts
2026-05-07 00:24 10.77174 -66.89888 7321 ft 279 kts
2026-05-07 00:24 10.79125 -66.89813 7823 ft 281 kts
2026-05-07 00:24 10.81084 -66.89900 8298 ft 286 kts 347°
2026-05-07 00:24 10.82846 -66.90832 8795 ft 290 kts 317°
2026-05-07 00:25 10.83981 -66.92514 9299 ft 292 kts 287°
2026-05-07 00:25 10.84284 -66.94542 9834 ft 292 kts 270°
2026-05-07 00:25 10.84290 -66.96637 10345 ft 301 kts 268°
2026-05-07 00:25 10.84251 -66.98846 10537 ft 325 kts 268°
2026-05-07 00:26 10.84209 -67.01222 10815 ft 343 kts 268°
2026-05-07 00:26 10.84177 -67.03678 11394 ft 350 kts 268°
2026-05-07 00:26 10.84156 -67.06132 12059 ft 354 kts 269°
2026-05-07 00:26 10.84141 -67.08647 12723 ft 357 kts 269°
2026-05-07 00:27 10.84129 -67.11180 13424 ft 360 kts 269°
2026-05-07 00:27 10.84119 -67.13725 14126 ft 361 kts 270°
2026-05-07 00:27 10.84109 -67.16289 14824 ft 363 kts 270°
2026-05-07 00:27 10.84099 -67.18865 15473 ft 366 kts 270°
2026-05-07 00:28 10.84001 -67.21463 16099 ft 369 kts 261°
2026-05-07 00:28 10.83399 -67.24010 16721 ft 372 kts 255°
2026-05-07 00:28 10.82680 -67.26546 17325 ft 375 kts 254°
2026-05-07 00:28 10.81932 -67.29105 17921 ft 378 kts 254°
2026-05-07 00:29 10.81185 -67.31678 18480 ft 381 kts 255°
2026-05-07 00:29 10.80443 -67.34272 19053 ft 383 kts 255°
2026-05-07 00:30 10.78237 -67.42145 20705 ft 390 kts 255°
2026-05-07 00:30 10.77498 -67.44812 21194 ft 393 kts 255°
2026-05-07 00:30 10.76754 -67.47499 21699 ft 395 kts 255°
2026-05-07 00:30 10.76005 -67.50203 22172 ft 397 kts 255°
2026-05-07 00:31 10.75252 -67.52924 22610 ft 400 kts 255°
2026-05-07 00:31 10.74495 -67.55657 23051 ft 403 kts 255°
2026-05-07 00:31 10.73734 -67.58402 23476 ft 405 kts 255°
2026-05-07 00:31 10.72977 -67.61135 23879 ft 407 kts 255°
2026-05-07 00:32 10.72208 -67.63909 24279 ft 409 kts 255°
2026-05-07 00:32 10.71433 -67.66699 24689 ft 410 kts 255°
2026-05-07 00:32 10.70656 -67.69498 25096 ft 411 kts 255°
2026-05-07 00:32 10.69877 -67.72302 25500 ft 413 kts 255°
2026-05-07 00:33 10.69095 -67.75118 25892 ft 414 kts 255°
2026-05-07 00:33 10.68312 -67.77935 26283 ft 415 kts 255°
2026-05-07 00:33 10.67525 -67.80764 26656 ft 416 kts 255°
2026-05-07 00:33 10.66738 -67.83597 27031 ft 417 kts 255°
2026-05-07 00:34 10.65940 -67.86442 27400 ft 418 kts 253°
2026-05-07 00:34 10.64714 -67.89126 27695 ft 422 kts 236°
2026-05-07 00:34 10.62844 -67.91433 28071 ft 422 kts 229°
2026-05-07 00:34 10.60865 -67.93645 28399 ft 424 kts 229°
2026-05-07 00:35 10.58897 -67.95830 28708 ft 425 kts 229°
2026-05-07 00:35 10.56910 -67.98059 29003 ft 426 kts 229°
2026-05-07 00:35 10.54928 -68.00310 29328 ft 427 kts 230°
2026-05-07 00:35 10.52954 -68.02572 29631 ft 428 kts 230°
2026-05-07 00:36 10.50981 -68.04836 29919 ft 429 kts 230°
2026-05-07 00:36 10.49030 -68.07136 30188 ft 429 kts 235°
2026-05-07 00:36 10.47596 -68.09776 30412 ft 428 kts 250°
2026-05-07 00:36 10.46581 -68.12629 30675 ft 430 kts 251°
2026-05-07 00:37 10.45620 -68.15505 30908 ft 431 kts 252°
2026-05-07 00:37 10.44667 -68.18402 31113 ft 433 kts 252°
2026-05-07 00:37 10.43701 -68.21314 31333 ft 435 kts 252°
2026-05-07 00:37 10.42724 -68.24227 31530 ft 437 kts 251°
2026-05-07 00:38 10.41743 -68.27121 31749 ft 439 kts 251°
2026-05-07 00:38 10.40739 -68.30054 31974 ft 440 kts 251°
2026-05-07 00:38 10.39725 -68.33003 32206 ft 441 kts 251°
2026-05-07 00:38 10.38708 -68.35950 32433 ft 442 kts 251°
2026-05-07 00:39 10.37689 -68.38900 32615 ft 442 kts 251°
2026-05-07 00:39 10.36683 -68.41813 32747 ft 443 kts 251°
2026-05-07 00:39 10.35661 -68.44773 32859 ft 445 kts 251°
2026-05-07 00:39 10.34636 -68.47747 32985 ft 446 kts 251°
2026-05-07 00:40 10.33609 -68.50719 33361 ft 440 kts 251°
2026-05-07 00:40 10.32609 -68.53613 33867 ft 432 kts 251°
2026-05-07 00:40 10.30605 -68.59414 33925 ft 438 kts 251°
2026-05-07 00:41 10.28564 -68.65313 33944 ft 446 kts 251°
2026-05-07 00:41 10.26507 -68.71261 33931 ft 452 kts 251°
2026-05-07 00:42 10.24413 -68.77305 33926 ft 455 kts 251°
2026-05-07 00:42 10.22309 -68.83379 33928 ft 457 kts 251°
2026-05-07 00:43 10.20221 -68.89399 33923 ft 458 kts 251°
2026-05-07 00:43 10.18108 -68.95489 33924 ft 456 kts 251°
2026-05-07 00:44 10.16013 -69.01525 33923 ft 454 kts 251°
2026-05-07 00:44 10.13912 -69.07573 33925 ft 453 kts 251°
2026-05-07 00:45 10.11821 -69.13590 33921 ft 452 kts 251°
2026-05-07 00:45 10.09731 -69.19598 33921 ft 451 kts 251°
2026-05-07 00:46 10.07647 -69.25587 33923 ft 450 kts 251°
2026-05-07 00:46 10.05565 -69.31568 33926 ft 449 kts 251°
2026-05-07 00:47 10.03283 -69.37428 33928 ft 450 kts 245°
2026-05-07 00:47 10.00380 -69.43116 33928 ft 451 kts 243°
2026-05-07 00:48 9.97449 -69.48713 33925 ft 453 kts 243°
2026-05-07 00:48 9.94514 -69.54394 33934 ft 455 kts 243°
2026-05-07 00:49 9.91587 -69.60116 33937 ft 457 kts 244°
2026-05-07 00:49 9.88665 -69.65842 33935 ft 458 kts 244°
2026-05-07 00:50 9.85736 -69.71581 33936 ft 458 kts 244°
2026-05-07 00:50 9.82801 -69.77318 33936 ft 458 kts 244°
2026-05-07 00:51 9.79868 -69.83057 33933 ft 458 kts 244°
2026-05-07 00:51 9.76956 -69.88752 33932 ft 457 kts 244°
2026-05-07 00:52 9.74023 -69.94482 33935 ft 457 kts 244°
2026-05-07 00:52 9.71097 -70.00196 33930 ft 456 kts 244°
2026-05-07 00:53 9.68176 -70.05900 33934 ft 456 kts 244°
2026-05-07 00:53 9.65252 -70.11603 33941 ft 456 kts 244°
2026-05-07 00:54 9.62344 -70.17273 33933 ft 456 kts 244°
2026-05-07 00:54 9.59415 -70.22980 33935 ft 456 kts 244°
2026-05-07 00:55 9.56485 -70.28691 33931 ft 456 kts 243°
2026-05-07 00:55 9.53551 -70.34402 33926 ft 456 kts 243°
2026-05-07 00:56 9.50622 -70.40101 33946 ft 456 kts 243°
2026-05-07 00:56 9.47707 -70.45775 33929 ft 457 kts 243°
2026-05-07 00:57 9.44764 -70.51498 33935 ft 457 kts 243°
2026-05-07 00:57 9.41733 -70.57167 33928 ft 458 kts 238°
2026-05-07 00:58 9.38086 -70.62482 33934 ft 459 kts 235°
2026-05-07 00:58 9.34391 -70.67711 33938 ft 459 kts 236°
2026-05-07 00:59 9.28900 -70.75675 33937 ft 460 kts 236°
2026-05-07 01:00 9.25244 -70.80988 33951 ft 459 kts 236°
2026-05-07 01:00 9.21601 -70.86266 33955 ft 460 kts 236°
2026-05-07 01:01 9.17935 -70.91579 33955 ft 460 kts 236°
2026-05-07 01:01 9.14263 -70.96900 33961 ft 461 kts 236°
2026-05-07 01:02 9.10593 -71.02223 33952 ft 461 kts 236°
2026-05-07 01:02 9.06917 -71.07543 33946 ft 461 kts 236°
2026-05-07 01:03 9.03260 -71.12832 33947 ft 460 kts 236°
2026-05-07 01:03 8.99587 -71.18146 33958 ft 460 kts 236°
2026-05-07 01:04 8.96516 -71.22587 33960 ft 460 kts 235°
2026-05-07 01:04 8.92864 -71.27866 33959 ft 460 kts 235°
2026-05-07 01:05 8.89196 -71.33169 33956 ft 460 kts 235°
2026-05-07 01:05 8.85523 -71.38476 33957 ft 460 kts 235°
2026-05-07 01:06 8.81844 -71.43798 33964 ft 460 kts 235°
2026-05-07 01:06 8.78190 -71.49084 33963 ft 461 kts 235°
2026-05-07 01:07 8.74516 -71.54401 33959 ft 461 kts 235°
2026-05-07 01:07 8.70827 -71.59738 33960 ft 462 kts 235°
2026-05-07 01:08 8.67141 -71.65066 33969 ft 462 kts 235°
2026-05-07 01:08 8.63451 -71.70395 33973 ft 463 kts 235°
2026-05-07 01:09 8.59762 -71.75726 33971 ft 463 kts 235°
2026-05-07 01:09 8.56091 -71.81027 33974 ft 463 kts 234°
2026-05-07 01:10 8.52400 -71.86357 33971 ft 463 kts 234°
2026-05-07 01:10 8.48696 -71.91699 33977 ft 463 kts 234°
2026-05-07 01:11 8.44993 -71.97040 33981 ft 463 kts 234°
2026-05-07 01:11 8.41291 -72.02378 33982 ft 464 kts 234°
2026-05-07 01:12 8.37609 -72.07686 33981 ft 464 kts 234°
2026-05-07 01:12 8.33904 -72.13024 33982 ft 464 kts 234°
2026-05-07 01:13 8.30195 -72.18367 33988 ft 465 kts 234°
2026-05-07 01:13 8.26481 -72.23714 33992 ft 465 kts 234°
2026-05-07 01:14 8.22281 -72.28655 33987 ft 463 kts 219°
2026-05-07 01:14 8.17222 -72.32626 33987 ft 464 kts 217°
2026-05-07 01:15 8.12086 -72.36585 33991 ft 464 kts 217°
2026-05-07 01:15 8.06991 -72.40584 33990 ft 464 kts 218°
2026-05-07 01:16 8.01913 -72.44598 33993 ft 464 kts 218°
2026-05-07 01:16 7.96829 -72.48614 33990 ft 464 kts 217°
2026-05-07 01:17 7.92103 -72.52980 33987 ft 464 kts 231°
2026-05-07 01:17 7.88360 -72.58284 33986 ft 464 kts 234°
2026-05-07 01:18 7.84702 -72.63655 33991 ft 464 kts 234°
2026-05-07 01:18 7.81005 -72.69021 33991 ft 465 kts 234°
2026-05-07 01:19 7.77292 -72.74357 33999 ft 465 kts 234°
2026-05-07 01:19 7.73590 -72.79658 34002 ft 465 kts 234°
2026-05-07 01:20 7.69863 -72.84992 34007 ft 465 kts 234°
2026-05-07 01:20 7.66136 -72.90327 34009 ft 464 kts 234°
2026-05-07 01:21 7.62417 -72.95650 34018 ft 465 kts 234°
2026-05-07 01:21 7.58691 -73.00980 34025 ft 465 kts 234°
2026-05-07 01:22 7.54980 -73.06288 34028 ft 465 kts 234°
2026-05-07 01:22 7.51245 -73.11630 34028 ft 466 kts 234°
2026-05-07 01:23 7.47506 -73.16974 34047 ft 466 kts 234°
2026-05-07 01:23 7.43784 -73.22292 34057 ft 466 kts 234°
2026-05-07 01:24 7.40039 -73.27641 34023 ft 467 kts 234°
2026-05-07 01:24 7.36287 -73.33001 34031 ft 467 kts 234°
2026-05-07 01:25 7.32538 -73.38351 34017 ft 467 kts 234°
2026-05-07 01:25 7.28795 -73.43692 34016 ft 466 kts 234°
2026-05-07 01:26 7.25076 -73.48996 34000 ft 466 kts 234°
2026-05-07 01:26 7.21335 -73.54331 33978 ft 467 kts 234°
2026-05-07 01:27 7.17581 -73.59682 33956 ft 467 kts 234°
2026-05-07 01:27 7.13834 -73.65022 33916 ft 467 kts 234°
2026-05-07 01:28 7.10086 -73.70362 33892 ft 467 kts 234°
2026-05-07 01:28 7.06332 -73.75711 33869 ft 467 kts 234°
2026-05-07 01:29 7.02609 -73.81064 33858 ft 467 kts 237°
2026-05-07 01:29 6.99339 -73.86723 33866 ft 467 kts 240°
2026-05-07 01:30 6.96211 -73.92445 33859 ft 467 kts 240°
2026-05-07 01:30 6.93073 -73.98133 33861 ft 467 kts 240°
2026-05-07 01:31 6.89888 -74.03837 33868 ft 467 kts 240°
2026-05-07 01:31 6.86690 -74.09541 33878 ft 467 kts 240°
2026-05-07 01:32 6.83491 -74.15244 33897 ft 468 kts 240°
2026-05-07 01:32 6.80286 -74.20954 33910 ft 468 kts 240°
2026-05-07 01:33 6.77104 -74.26627 33934 ft 469 kts 240°
2026-05-07 01:33 6.73891 -74.32353 33951 ft 469 kts 240°
2026-05-07 01:34 6.70679 -74.38076 33981 ft 470 kts 240°
2026-05-07 01:34 6.67462 -74.43806 34013 ft 470 kts 240°
2026-05-07 01:35 6.64265 -74.49497 34050 ft 470 kts 240°
2026-05-07 01:35 6.61047 -74.55225 34073 ft 471 kts 240°
2026-05-07 01:36 6.57822 -74.60959 34100 ft 470 kts 240°
2026-05-07 01:36 6.54607 -74.66680 34135 ft 470 kts 240°
2026-05-07 01:37 6.51383 -74.72413 34159 ft 470 kts 240°
2026-05-07 01:37 6.48161 -74.78140 34187 ft 470 kts 240°
2026-05-07 01:38 6.44963 -74.83825 34214 ft 470 kts 240°
2026-05-07 01:38 6.41743 -74.89549 34240 ft 470 kts 240°
2026-05-07 01:39 6.38519 -74.95275 34222 ft 471 kts 240°
2026-05-07 01:39 6.35292 -75.01006 34226 ft 471 kts 240°
2026-05-07 01:40 6.32050 -75.06760 33729 ft 477 kts 240°
2026-05-07 01:40 6.30417 -75.09659 33101 ft 475 kts 240°
2026-05-07 01:40 6.28807 -75.12518 32497 ft 473 kts 240°
2026-05-07 01:40 6.27192 -75.15385 32013 ft 468 kts 240°
2026-05-07 01:41 6.25599 -75.18212 31506 ft 463 kts 240°
2026-05-07 01:41 6.24015 -75.21022 31008 ft 459 kts 240°
2026-05-07 01:41 6.22447 -75.23805 30511 ft 455 kts 240°
2026-05-07 01:41 6.20891 -75.26563 30023 ft 451 kts 240°
2026-05-07 01:42 6.19302 -75.29266 29509 ft 447 kts 234°
2026-05-07 01:42 6.17304 -75.31640 28997 ft 443 kts 223°
2026-05-07 01:42 6.14944 -75.33607 28417 ft 440 kts 213°
2026-05-07 01:42 6.12314 -75.35092 27922 ft 436 kts 205°
2026-05-07 01:43 6.09572 -75.36374 27427 ft 432 kts 204°
2026-05-07 01:43 6.06845 -75.37626 26926 ft 430 kts 204°
2026-05-07 01:43 6.04144 -75.38889 26429 ft 427 kts 205°
2026-05-07 01:43 6.01469 -75.40167 25935 ft 424 kts 205°
2026-05-07 01:44 5.98811 -75.41449 25439 ft 422 kts 205°
2026-05-07 01:44 5.96119 -75.42590 24908 ft 419 kts 200°
2026-05-07 01:44 5.93373 -75.43577 24401 ft 417 kts 198°
2026-05-07 01:44 5.90631 -75.44505 23896 ft 415 kts 198°
2026-05-07 01:45 5.87894 -75.45420 23385 ft 413 kts 198°
2026-05-07 01:45 5.85174 -75.46338 22886 ft 411 kts 198°
2026-05-07 01:45 5.82472 -75.47259 22401 ft 409 kts 198°
2026-05-07 01:45 5.79788 -75.48185 21917 ft 407 kts 198°
2026-05-07 01:46 5.77149 -75.49100 21436 ft 404 kts 198°
2026-05-07 01:46 5.74509 -75.50019 20962 ft 401 kts 198°
2026-05-07 01:46 5.71884 -75.50933 20489 ft 397 kts 198°
2026-05-07 01:46 5.69279 -75.51841 20034 ft 394 kts 197°
2026-05-07 01:47 5.66683 -75.52746 19557 ft 392 kts 197°
2026-05-07 01:47 5.64112 -75.53642 19098 ft 389 kts 197°
2026-05-07 01:47 5.61597 -75.54518 18640 ft 387 kts 197°
2026-05-07 01:47 5.59058 -75.55403 18123 ft 385 kts 197°
2026-05-07 01:48 5.56537 -75.56282 17696 ft 382 kts 197°
2026-05-07 01:48 5.54033 -75.57154 17344 ft 377 kts 197°
2026-05-07 01:48 5.51565 -75.58015 16967 ft 373 kts 197°
2026-05-07 01:48 5.49114 -75.58867 16538 ft 371 kts 197°
2026-05-07 01:49 5.46682 -75.59713 16085 ft 367 kts 197°
2026-05-07 01:49 5.44275 -75.60551 15514 ft 367 kts 197°
2026-05-07 01:49 5.41871 -75.61387 14873 ft 364 kts 197°
2026-05-07 01:49 5.39505 -75.62212 14752 ft 352 kts 197°
2026-05-07 01:50 5.37253 -75.62999 14587 ft 342 kts 197°
2026-05-07 01:50 5.35039 -75.63774 14462 ft 332 kts 198°
2026-05-07 01:50 5.32888 -75.64528 14336 ft 323 kts 198°
2026-05-07 01:50 5.30790 -75.65262 14203 ft 314 kts 197°
2026-05-07 01:51 5.28752 -75.65975 14069 ft 306 kts 197°
2026-05-07 01:51 5.26770 -75.66669 13908 ft 298 kts 197°
2026-05-07 01:51 5.25475 -75.67121 13708 ft 297 kts 197°
2026-05-07 01:51 5.23530 -75.67800 13418 ft 295 kts 197°
2026-05-07 01:52 5.21601 -75.68475 13142 ft 293 kts 197°
2026-05-07 01:52 5.19679 -75.69148 12842 ft 291 kts 197°
2026-05-07 01:52 5.17771 -75.69815 12549 ft 290 kts 198°
2026-05-07 01:52 5.15863 -75.70482 12232 ft 289 kts 198°
2026-05-07 01:53 5.13973 -75.71148 12007 ft 285 kts 199°
2026-05-07 01:53 5.12179 -75.71892 11976 ft 281 kts 202°
2026-05-07 01:53 5.10391 -75.72694 11960 ft 281 kts 203°
2026-05-07 01:53 5.08599 -75.73507 11969 ft 282 kts 203°
2026-05-07 01:54 5.06821 -75.74310 11947 ft 283 kts 203°
2026-05-07 01:54 5.05023 -75.75116 11937 ft 282 kts 203°
2026-05-07 01:54 5.03228 -75.75917 11913 ft 283 kts 202°
2026-05-07 01:54 5.01422 -75.76722 11880 ft 283 kts 202°
2026-05-07 01:55 4.99625 -75.77520 11874 ft 282 kts 203°
2026-05-07 01:55 4.97833 -75.78318 11876 ft 280 kts 202°
2026-05-07 01:55 4.96070 -75.79100 11881 ft 272 kts 202°
2026-05-07 01:55 4.94378 -75.79854 11871 ft 261 kts 204°
2026-05-07 01:56 4.92857 -75.80771 11867 ft 256 kts 214°
2026-05-07 01:56 4.91398 -75.81823 11868 ft 259 kts 214°
2026-05-07 01:56 4.89933 -75.82881 11846 ft 260 kts 214°
2026-05-07 01:56 4.88460 -75.83926 11848 ft 259 kts 214°
2026-05-07 01:57 4.86994 -75.84999 11658 ft 263 kts 222°
2026-05-07 01:57 4.85966 -75.86505 11461 ft 261 kts 246°
2026-05-07 01:57 4.85367 -75.88195 11250 ft 259 kts 252°
2026-05-07 01:57 4.84837 -75.89917 11026 ft 258 kts 252°
2026-05-07 01:58 4.84309 -75.91628 10868 ft 256 kts 252°
2026-05-07 01:58 4.83778 -75.93336 10811 ft 256 kts 251°
2026-05-07 01:58 4.83236 -75.95035 10768 ft 255 kts 251°
2026-05-07 01:58 4.82670 -75.96732 10538 ft 257 kts 245°
2026-05-07 01:59 4.81611 -75.98112 10272 ft 253 kts 215°
2026-05-07 01:59 4.80018 -75.98768 10042 ft 247 kts 187°
2026-05-07 01:59 4.78345 -75.98657 9825 ft 236 kts 165°
2026-05-07 01:59 4.76811 -75.98182 9573 ft 226 kts 162°
2026-05-07 02:00 4.75449 -75.97456 9208 ft 222 kts 136°
2026-05-07 02:00 4.74665 -75.96156 8869 ft 218 kts 108°
2026-05-07 02:00 4.74597 -75.94639 8376 ft 223 kts 78°
2026-05-07 02:00 4.75080 -75.93196 8071 ft 220 kts 72°
2026-05-07 02:01 4.75559 -75.91747 7765 ft 216 kts 74°
2026-05-07 02:01 4.76007 -75.90341 7478 ft 205 kts 74°
2026-05-07 02:01 4.76424 -75.89042 7215 ft 188 kts 73°
2026-05-07 02:01 4.76806 -75.87854 6961 ft 171 kts 74°
2026-05-07 02:02 4.77148 -75.86788 6750 ft 153 kts 74°
2026-05-07 02:02 4.77482 -75.85729 6573 ft 166 kts 75°
2026-05-07 02:02 4.77837 -75.84621 6349 ft 170 kts 73°
2026-05-07 02:02 4.78210 -75.83479 6097 ft 173 kts 74°
2026-05-07 02:03 4.78578 -75.82331 5877 ft 171 kts 74°
2026-05-07 02:03 4.78933 -75.81227 5642 ft 162 kts 73°
2026-05-07 02:03 4.79273 -75.80164 5438 ft 159 kts 73°
2026-05-07 02:03 4.79610 -75.79116 5234 ft 159 kts 72°
2026-05-07 02:04 4.79961 -75.78027 5026 ft 167 kts 72°
2026-05-07 02:04 4.80320 -75.76906 4812 ft 170 kts 72°
2026-05-07 02:04 4.80674 -75.75806 4564 ft 161 kts 71°
2026-05-07 02:04 4.81009 -75.74775 4369 ft 148 kts 72°
2026-05-07 02:05 4.81270 -75.73965 4350 ft 76 kts 72°
2026-05-07 02:05 4.81326 -75.73779 4350 ft 0 kts 72°
2026-05-07 02:05 4.81344 -75.73757 4350 ft 11 kts 30°
2026-05-07 02:05 4.81398 -75.73762 4350 ft 0 kts 349°
2026-05-07 02:06 4.81421 -75.73769 4350 ft 8 kts 337°
2026-05-07 02:06 4.81468 -75.73786 4350 ft 5 kts 343°
2026-05-07 02:07 4.81469 -75.73786 4350 ft 0 kts 343°
2026-05-07 02:07 4.81477 -75.73789 4350 ft 0 kts 341°
2026-05-07 02:07 4.81476 -75.73789 4350 ft 0 kts 341°